[Iaude] MPEC J94: 2024 JF2 [a=1.97,e=0.48,i=7.9,H=22.8]
    mpec at cfa.harvard.edu 
    mpec at cfa.harvard.edu
       
    Mon May  6 06:38:25 EDT 2024
    
    
  
M.P.E.C. 2024-J94                                   Issued 2024 May 6, 10:36 UT
     The Minor Planet Electronic Circulars contain information on unusual
         minor planets, routine data on comets and natural satellites,
         and occasional editorial announcements.  They are published
    on behalf of Division F of the International Astronomical Union by the
          Minor Planet Center, Smithsonian Astrophysical Observatory,
                          Cambridge, MA 02138, U.S.A.
			  
             Prepared using the Tamkin Foundation Computer Network
                              MPC at CFA.HARVARD.EDU
            URL https://www.minorplanetcenter.net/    ISSN 1523-6714
                                    2024 JF2                                    
Observations:
     K24J02F* C2024 05 03.33416913 19 08.346+11 28 12.32         20.96GVEJ094V00
     K24J02F  C2024 05 03.34042513 19 07.590+11 28 11.42         22.63GVEJ094V00
     K24J02F  C2024 05 03.34664613 19 06.892+11 28 10.88         21.93GVEJ094V00
     K24J02F  C2024 05 03.35287713 19 06.128+11 28 10.81         21.83GVEJ094V00
     K24J02F mC2024 05 03.38147113 19 02.759+11 28 08.69         21.50GVEJ094V00
     K24J02F  C2024 05 03.38228213 19 02.665+11 28 08.47         21.77GVEJ094V00
     K24J02F mC2024 05 03.38496513 19 02.334+11 28 08.54         22.01GVEJ094V00
     K24J02F mC2024 05 03.38845113 19 01.934+11 28 08.08         21.89GVEJ094V00
     K24J02F  C2024 05 03.38988413 19 01.776+11 28 08.33         21.67GVEJ094V00
     K24J02F mC2024 05 03.39193313 19 01.520+11 28 07.97         21.63GVEJ094V00
     K24J02F  C2024 05 03.39648313 19 00.988+11 28 07.68         21.68GVEJ094V00
     K24J02F  C2024 05 03.40209013 19 00.347+11 28 07.07         21.70GVEJ094V00
     K24J02F KC2024 05 03.40513 13 18 59.96 +11 28 07.1                VEJ094291
     K24J02F KC2024 05 03.41359 13 18 59.05 +11 28 06.6          21.2 RVEJ094291
     K24J02F KC2024 05 03.42204 13 18 58.03 +11 28 05.5          21.8 RVEJ094291
     K24J02F !C2024 05 04.20547 13 17 33.22 +11 27 11.0          20.4 GVEJ094673
     K24J02F !C2024 05 04.21274 13 17 32.31 +11 27 10.1                VEJ094673
     K24J02F KC2024 05 04.25414 13 17 27.09 +11 27 07.7          21.9 RVEJ094291
     K24J02F KC2024 05 04.25847 13 17 26.56 +11 27 07.5          21.3 RVEJ094291
     K24J02F KC2024 05 04.26281 13 17 26.05 +11 27 07.3          21.3 RVEJ094291
     K24J02F KC2024 05 05.21229 13 15 40.54 +11 25 15.6          21.9 RVEJ094691
     K24J02F KC2024 05 05.22208 13 15 39.37 +11 25 14.4          22.2 RVEJ094691
     K24J02F KC2024 05 05.23186 13 15 38.15 +11 25 13.4          22.0 RVEJ094691
Observer details:
291 LPL/Spacewatch II.  Observer T. H. Bressi.  1.8-m f/2.7 reflector + CCD.
673 Table Mountain Observatory, Wrightwood.  Observer J. Pittichova.  1.0-m
    f/15 reflector + CCD.
691 Steward Observatory, Kitt Peak-Spacewatch.  Observer M. T. Read.  0.9-m
    f/3 reflector + CCD.
V00 Kitt Peak-Bok.  Observer R. A. Mastaler.  Measurers M. J. Brucker, C. E.
    Woodward, T. Beuden, V. F. Carvajal, D. Fay, J. B. Fazekas, D. C. Fuls, A.
    R. Gibbs, H. Groeller, J. K. Hogan, R. A. Kowalski, S. M. Larson, C.
    Lejoly, G. J. Leonard, R. A. Mastaler, R. S. McMillan, D. Rankin, R. L.
    Seaman, F. C. Shelly, K. W. Wierzchos.  2.25-m reflector + 4x4K mosaic
    CCD.
Orbital elements:
2024 JF2                                                 Earth MOID = 0.0391 AU
Epoch 2024 Mar. 31.0 TT = JDT 2460400.5                 Veres                   
M 323.84470              (2000.0)            P               Q                  
n   0.35709281     Peri.  213.98616     +0.23764818     +0.96279575             
a   1.9676536      Node    70.05339     -0.85800091     +0.27015077             
e   0.4831693      Incl.    7.86545     -0.45536555     -0.00655066             
P   2.76           H   22.85          G   0.15           U   9                  
Residuals in seconds of arc
240503 V00 (0.3-  0.4+)   240503 V00  0.1+  0.3+    240504 673  0.2+  0.2-
240503 V00  0.4-  0.1-    240503 V00  0.1-  0.0     240504 291  0.1-  0.2-
240503 V00  0.2+  0.2-    240503 V00  0.1-  0.1+    240504 291  0.1-  0.0
240503 V00  0.1-  0.1+    240503 V00  0.1+  0.1-    240504 291  0.1+  0.3+
240503 V00  0.1+  0.0     240503 291  0.4-  0.2+    240505 691  0.2-  0.3-
240503 V00  0.1+  0.2-    240503 291  0.7+  0.3+    240505 691  0.2+  0.2-
240503 V00  0.1-  0.1+    240503 291  0.1+  0.1-    240505 691  0.1-  0.2+
240503 V00  0.0   0.1-    240504 673  0.7+  0.1+
Ephemeris:
2024 JF2                 a,e,i = 1.97, 0.48, 8                   q = 1.0169
Date    TT    R. A. (2000) Decl.     Delta      r    Elong.  Phase     V
2024 04 06    13 57 04.0 +08 33 21   0.4743  1.4542   159.4    14.0    22.8
...
2024 04 21    13 39 57.3 +10 47 02   0.3708  1.3540   157.0    16.8    22.2
...
2024 04 29    13 26 57.3 +11 24 46   0.3280  1.3021   150.3    22.5    22.1
...
2024 05 05    13 16 04.1 +11 25 55   0.3006  1.2643   144.1    27.9    22.0
2024 05 06    13 14 12.0 +11 23 20   0.2963  1.2581   143.0    28.9    22.0
2024 05 07    13 12 19.4 +11 19 52   0.2922  1.2520   141.9    29.8    22.0
...
2024 05 13    13 01 03.6 +10 39 21   0.2690  1.2159   135.1    35.9    21.9
...
2024 05 21    12 46 40.8 +08 47 11   0.2415  1.1706   126.1    44.3    21.8
...
2024 06 05    12 23 35.2 +01 46 38   0.1952  1.0973   110.2    60.2    21.7
M. P. C. Staff               (C) Copyright 2024 MPC           M.P.E.C. 2024-J94
    
    
More information about the Iaude
mailing list